| time (UTC) | temp C | wind direction | speed KPH | gust KPH | rain 1hr cm | rain 24hr cm | rain mn cm | humidity % | barometer mb |
| 20260503204529 | 19 | 188 | 1.6 | 8.0 | 0.00 | 0.00 | 0.00 | 58 | 1011.6 |
| 20260503204026 | 20 | 184 | 1.6 | 9.7 | 0.00 | 0.00 | 0.00 | 58 | 1011.6 |
| 20260503203523 | 18 | 175 | 3.2 | 12.9 | 0.00 | 0.00 | 0.00 | 61 | 1011.6 |
| 20260503203020 | 18 | 195 | 4.8 | 9.7 | 0.00 | 0.00 | 0.00 | 61 | 1011.6 |
| 20260503202518 | 18 | 200 | 1.6 | 9.7 | 0.00 | 0.00 | 0.00 | 62 | 1011.6 |
| 20260503202016 | 19 | 173 | 1.6 | 4.8 | 0.00 | 0.00 | 0.00 | 60 | 1011.6 |
| 20260503201514 | 18 | 210 | 3.2 | 9.7 | 0.00 | 0.00 | 0.00 | 62 | 1011.6 |
| 20260503201011 | 18 | 154 | 6.4 | 9.7 | 0.00 | 0.00 | 0.00 | 63 | 1011.6 |
| 20260503200507 | 18 | 254 | 3.2 | 4.8 | 0.00 | 0.00 | 0.00 | 62 | 1011.9 |
| 20260503200004 | 18 | 75 | 3.2 | 4.8 | 0.00 | 0.00 | 0.00 | 63 | 1011.9 |
| 20260503195501 | 17 | 181 | 1.6 | 4.8 | 0.00 | 0.00 | 0.00 | 64 | 1011.9 |
| 20260503194957 | 18 | 96 | 4.8 | 8.0 | 0.00 | 0.00 | 0.00 | 64 | 1011.9 |
| 20260503194455 | 18 | 230 | 1.6 | 1.6 | 0.00 | 0.00 | 0.00 | 63 | 1012.3 |
| 20260503193949 | 18 | 212 | 1.6 | 3.2 | 0.00 | 0.00 | 0.00 | 64 | 1012.3 |
| 20260503193445 | 18 | 216 | 1.6 | 1.6 | 0.00 | 0.00 | 0.00 | 65 | 1012.3 |
| 20260503192941 | 17 | 162 | 0.0 | 3.2 | 0.00 | 0.00 | 0.00 | 66 | 1012.3 |
| 20260503192438 | 17 | 205 | 1.6 | 1.6 | 0.00 | 0.00 | 0.00 | 66 | 1012.3 |
| 20260503191933 | 17 | 167 | 0.0 | 1.6 | 0.00 | 0.00 | 0.00 | 66 | 1012.3 |
| 20260503191431 | 17 | 185 | 0.0 | 4.8 | 0.00 | 0.00 | 0.00 | 67 | 1012.6 |
| 20260503190927 | 17 | 168 | 3.2 | 3.2 | 0.00 | 0.00 | 0.00 | 66 | 1012.6 |
| 20260503190425 | 17 | 276 | 4.8 | 4.8 | 0.00 | 0.00 | 0.00 | 66 | 1012.6 |
| 20260503185922 | 17 | 200 | 3.2 | 3.2 | 0.00 | 0.00 | 0.00 | 67 | 1012.6 |
| 20260503185418 | 17 | 215 | 1.6 | 1.6 | 0.00 | 0.00 | 0.00 | 68 | 1012.6 |
| 20260503184917 | 16 | 219 | 3.2 | 4.8 | 0.00 | 0.00 | 0.00 | 69 | 1012.6 |
| 20260503184414 | 16 | 193 | 4.8 | 8.0 | 0.00 | 0.00 | 0.00 | 70 | 1013.0 |
| 20260503183910 | 16 | 260 | 6.4 | 9.7 | 0.00 | 0.00 | 0.00 | 69 | 1013.0 |
| 20260503183407 | 16 | 204 | 3.2 | 8.0 | 0.00 | 0.00 | 0.00 | 70 | 1012.6 |
| 20260503182904 | 17 | 218 | 3.2 | 8.0 | 0.00 | 0.00 | 0.00 | 69 | 1012.6 |
| 20260503182403 | 17 | 219 | 6.4 | 8.0 | 0.00 | 0.00 | 0.00 | 69 | 1012.6 |
| 20260503181900 | 17 | 231 | 3.2 | 8.0 | 0.00 | 0.00 | 0.00 | 69 | 1013.0 |
| 20260503181357 | 17 | 199 | 4.8 | 4.8 | 0.00 | 0.00 | 0.00 | 69 | 1013.0 |
| 20260503180853 | 17 | 212 | 6.4 | 12.9 | 0.00 | 0.00 | 0.00 | 68 | 1012.6 |
| 20260503180351 | 17 | 220 | 3.2 | 3.2 | 0.00 | 0.00 | 0.00 | 67 | 1013.0 |
| 20260503175847 | 17 | 215 | 3.2 | 11.3 | 0.00 | 0.00 | 0.00 | 67 | 1012.6 |
| 20260503175346 | 17 | 239 | 3.2 | 9.7 | 0.00 | 0.00 | 0.00 | 68 | 1012.6 |
| 20260503174841 | 17 | 218 | 8.0 | 11.3 | 0.00 | 0.00 | 0.00 | 66 | 1012.6 |
| 20260503174339 | 17 | 212 | 6.4 | 11.3 | 0.00 | 0.00 | 0.00 | 67 | 1013.0 |
| 20260503173834 | 17 | 213 | 3.2 | 4.8 | 0.00 | 0.00 | 0.00 | 66 | 1012.6 |
| 20260503173331 | 17 | 198 | 6.4 | 11.3 | 0.00 | 0.00 | 0.00 | 66 | 1012.6 |
| 20260503172827 | 17 | 175 | 3.2 | 4.8 | 0.00 | 0.00 | 0.00 | 67 | 1012.6 |
| 20260503172325 | 17 | 225 | 1.6 | 8.0 | 0.00 | 0.00 | 0.00 | 66 | 1012.6 |
| 20260503171821 | 17 | 235 | 4.8 | 8.0 | 0.00 | 0.00 | 0.00 | 67 | 1012.3 |
| 20260503171318 | 17 | 202 | 0.0 | 3.2 | 0.00 | 0.00 | 0.00 | 67 | 1012.6 |
| 20260503170815 | 17 | 205 | 1.6 | 4.8 | 0.00 | 0.00 | 0.00 | 68 | 1012.3 |
| 20260503170312 | 17 | 218 | 3.2 | 4.8 | 0.00 | 0.00 | 0.00 | 68 | 1011.9 |
| 20260503150704 | 15 | 173 | 3.2 | 4.8 | 0.00 | 0.00 | 0.00 | 79 | 1011.6 |
| 20260503150200 | 15 | 135 | 1.6 | 4.8 | 0.00 | 0.00 | 0.00 | 79 | 1011.6 |
| 20260503140125 | 15 | 91 | 4.8 | 4.8 | 0.00 | 0.00 | 0.00 | 83 | 1011.2 |
| 20260503131054 | 15 | 175 | 1.6 | 3.2 | 0.00 | 0.00 | 0.00 | 80 | 1011.2 |
| 20260503130551 | 15 | 173 | 1.6 | 3.2 | 0.00 | 0.00 | 0.00 | 80 | 1010.9 |
| 20260503110442 | 15 | 264 | 3.2 | 4.8 | 0.00 | 0.00 | 0.00 | 86 | 1010.6 |
| 20260503090333 | 15 | 187 | 3.2 | 8.0 | 0.00 | 0.00 | 0.00 | 87 | 1010.9 |
| 20260503081300 | 15 | 191 | 4.8 | 8.0 | 0.00 | 0.00 | 0.00 | 84 | 1010.9 |
| 20260503080756 | 15 | 186 | 0.0 | 3.2 | 0.00 | 0.00 | 0.00 | 84 | 1011.2 |
| 20260503080254 | 15 | 188 | 1.6 | 4.8 | 0.00 | 0.00 | 0.00 | 85 | 1011.2 |
| 20260503072730 | 15 | 170 | 6.4 | 9.7 | 0.00 | 0.00 | 0.00 | 85 | 1010.9 |
| 20260503072227 | 15 | 187 | 1.6 | 3.2 | 0.00 | 0.00 | 0.00 | 85 | 1011.2 |
| 20260503071723 | 15 | 162 | 6.4 | 8.0 | 0.00 | 0.00 | 0.00 | 85 | 1010.9 |
| 20260503071220 | 15 | 176 | 3.2 | 9.7 | 0.00 | 0.00 | 0.00 | 85 | 1010.9 |
| 20260503070717 | 15 | 170 | 6.4 | 9.7 | 0.00 | 0.00 | 0.00 | 85 | 1011.2 |
| 20260503070215 | 15 | 200 | 1.6 | 3.2 | 0.00 | 0.00 | 0.00 | 85 | 1010.9 |
| 20260503060139 | 15 | 197 | 1.6 | 3.2 | 0.00 | 0.00 | 0.00 | 85 | 1010.9 |
| 20260503054626 | 15 | 217 | 4.8 | 4.8 | 0.00 | 0.00 | 0.00 | 85 | 1010.6 |
| 20260503054124 | 15 | 197 | 4.8 | 4.8 | 0.00 | 0.00 | 0.00 | 84 | 1010.6 |
| 20260503053622 | 15 | 206 | 3.2 | 3.2 | 0.00 | 0.00 | 0.00 | 84 | 1010.9 |
| 20260503053120 | 15 | 217 | 1.6 | 3.2 | 0.00 | 0.00 | 0.00 | 84 | 1010.6 |
| 20260503052616 | 15 | 234 | 3.2 | 3.2 | 0.00 | 0.00 | 0.00 | 84 | 1010.9 |
| 20260503052112 | 16 | 230 | 1.6 | 3.2 | 0.00 | 0.00 | 0.00 | 83 | 1010.6 |
| 20260503051608 | 16 | 229 | 1.6 | 3.2 | 0.00 | 0.00 | 0.00 | 83 | 1010.9 |
| 20260503051106 | 16 | 225 | 1.6 | 3.2 | 0.00 | 0.00 | 0.00 | 82 | 1010.6 |
| 20260503050602 | 16 | 214 | 1.6 | 3.2 | 0.00 | 0.00 | 0.00 | 82 | 1010.6 |
| 20260503050059 | 16 | 227 | 6.4 | 8.0 | 0.00 | 0.00 | 0.00 | 81 | 1010.6 |
| 20260503045556 | 16 | 197 | 1.6 | 3.2 | 0.00 | 0.00 | 0.00 | 81 | 1010.6 |
| 20260503045053 | 16 | 204 | 3.2 | 3.2 | 0.00 | 0.00 | 0.00 | 81 | 1010.6 |
| 20260503044550 | 16 | 192 | 0.0 | 1.6 | 0.00 | 0.00 | 0.00 | 81 | 1010.6 |
| 20260503044048 | 16 | 177 | 3.2 | 4.8 | 0.00 | 0.00 | 0.00 | 80 | 1010.6 |
| 20260503043543 | 16 | 209 | 3.2 | 4.8 | 0.00 | 0.00 | 0.00 | 80 | 1010.6 |
| 20260503043040 | 16 | 202 | 4.8 | 8.0 | 0.00 | 0.00 | 0.00 | 80 | 1010.6 |
| 20260503042537 | 16 | 179 | 1.6 | 3.2 | 0.00 | 0.00 | 0.00 | 80 | 1010.6 |
| 20260503042033 | 16 | 202 | 1.6 | 4.8 | 0.00 | 0.00 | 0.00 | 80 | 1010.6 |
| 20260503041530 | 16 | 184 | 1.6 | 3.2 | 0.00 | 0.00 | 0.00 | 80 | 1010.2 |
| 20260503041028 | 16 | 203 | 4.8 | 4.8 | 0.00 | 0.00 | 0.00 | 80 | 1010.2 |
| 20260503040525 | 16 | 218 | 1.6 | 4.8 | 0.00 | 0.00 | 0.00 | 80 | 1009.9 |
| 20260503040022 | 16 | 209 | 1.6 | 4.8 | 0.00 | 0.00 | 0.00 | 79 | 1010.2 |
| 20260503035519 | 16 | 173 | 4.8 | 12.9 | 0.00 | 0.00 | 0.00 | 79 | 1009.9 |
| 20260503035017 | 16 | 181 | 4.8 | 4.8 | 0.00 | 0.00 | 0.00 | 79 | 1009.9 |
| 20260503034514 | 16 | 176 | 4.8 | 9.7 | 0.00 | 0.00 | 0.00 | 79 | 1009.9 |
| 20260503034011 | 16 | 183 | 3.2 | 4.8 | 0.00 | 0.00 | 0.00 | 78 | 1009.5 |
| 20260503033508 | 16 | 187 | 6.4 | 9.7 | 0.00 | 0.00 | 0.00 | 79 | 1009.5 |
| 20260503033006 | 16 | 188 | 3.2 | 8.0 | 0.00 | 0.00 | 0.00 | 78 | 1009.5 |
| 20260503032504 | 16 | 219 | 6.4 | 8.0 | 0.00 | 0.00 | 0.00 | 78 | 1009.5 |
| 20260503032002 | 16 | 215 | 3.2 | 11.3 | 0.00 | 0.00 | 0.00 | 78 | 1009.2 |
| 20260503031500 | 16 | 226 | 6.4 | 9.7 | 0.00 | 0.00 | 0.00 | 77 | 1009.2 |
| 20260503030956 | 17 | 206 | 4.8 | 9.7 | 0.00 | 0.00 | 0.00 | 77 | 1009.2 |
| 20260503030452 | 17 | 201 | 4.8 | 8.0 | 0.00 | 0.00 | 0.00 | 76 | 1009.2 |
| 20260503025949 | 17 | 215 | 1.6 | 8.0 | 0.00 | 0.00 | 0.00 | 76 | 1009.2 |
| 20260503025446 | 17 | 213 | 3.2 | 9.7 | 0.00 | 0.00 | 0.00 | 75 | 1009.2 |
| 20260503024943 | 17 | 211 | 3.2 | 8.0 | 0.00 | 0.00 | 0.00 | 74 | 1008.9 |
| 20260503024440 | 17 | 217 | 4.8 | 9.7 | 0.00 | 0.00 | 0.00 | 73 | 1008.9 |
| 20260503023937 | 17 | 186 | 3.2 | 9.7 | 0.00 | 0.00 | 0.00 | 73 | 1008.9 |
| 20260503023434 | 17 | 242 | 8.0 | 9.7 | 0.00 | 0.00 | 0.00 | 72 | 1008.9 |
| 20260503022931 | 18 | 221 | 6.4 | 11.3 | 0.00 | 0.00 | 0.00 | 71 | 1008.9 |
| 20260503022426 | 18 | 174 | 1.6 | 16.1 | 0.00 | 0.00 | 0.00 | 70 | 1008.5 |
| 20260503021922 | 18 | 191 | 4.8 | 8.0 | 0.00 | 0.00 | 0.00 | 70 | 1008.5 |
| 20260503021418 | 18 | 181 | 9.7 | 11.3 | 0.00 | 0.00 | 0.00 | 69 | 1008.5 |
| 20260503020916 | 18 | 163 | 8.0 | 11.3 | 0.00 | 0.00 | 0.00 | 69 | 1008.5 |
| 20260503020414 | 18 | 197 | 6.4 | 9.7 | 0.00 | 0.00 | 0.00 | 69 | 1008.5 |
| 20260503015909 | 18 | 234 | 8.0 | 11.3 | 0.00 | 0.00 | 0.00 | 69 | 1008.5 |
| 20260503015407 | 19 | 200 | 8.0 | 12.9 | 0.00 | 0.00 | 0.00 | 68 | 1008.5 |
| 20260503014902 | 19 | 233 | 12.9 | 14.5 | 0.00 | 0.00 | 0.00 | 68 | 1008.5 |
| 20260503014400 | 19 | 207 | 4.8 | 9.7 | 0.00 | 0.00 | 0.00 | 67 | 1008.5 |
| 20260503013858 | 20 | 215 | 3.2 | 8.0 | 0.00 | 0.00 | 0.00 | 66 | 1008.2 |
| 20260503013354 | 20 | 198 | 3.2 | 8.0 | 0.00 | 0.00 | 0.00 | 66 | 1008.2 |
| 20260503012852 | 20 | 214 | 6.4 | 12.9 | 0.00 | 0.00 | 0.00 | 65 | 1008.2 |
| 20260503012349 | 20 | 218 | 9.7 | 11.3 | 0.00 | 0.00 | 0.00 | 65 | 1008.2 |
| 20260503011846 | 20 | 203 | 4.8 | 11.3 | 0.00 | 0.00 | 0.00 | 64 | 1008.5 |
| 20260503011342 | 20 | 208 | 3.2 | 12.9 | 0.00 | 0.00 | 0.00 | 65 | 1008.2 |
| 20260503010838 | 21 | 210 | 3.2 | 9.7 | 0.00 | 0.00 | 0.00 | 64 | 1008.2 |
| 20260503010331 | 21 | 210 | 8.0 | 11.3 | 0.00 | 0.00 | 0.00 | 63 | 1008.2 |
| 20260503005827 | 21 | 206 | 4.8 | 8.0 | 0.00 | 0.00 | 0.00 | 62 | 1008.2 |
| 20260503005325 | 21 | 203 | 4.8 | 11.3 | 0.00 | 0.00 | 0.00 | 62 | 1008.2 |
| 20260503004821 | 21 | 219 | 4.8 | 8.0 | 0.00 | 0.00 | 0.00 | 63 | 1008.2 |
| 20260503004319 | 21 | 232 | 8.0 | 9.7 | 0.00 | 0.00 | 0.00 | 63 | 1008.2 |
| 20260503003816 | 21 | 202 | 3.2 | 8.0 | 0.00 | 0.00 | 0.00 | 63 | 1008.2 |
| 20260503003313 | 21 | 202 | 6.4 | 11.3 | 0.00 | 0.00 | 0.00 | 63 | 1008.2 |
| 20260503002810 | 21 | 212 | 9.7 | 12.9 | 0.00 | 0.00 | 0.00 | 63 | 1008.2 |
| 20260503002307 | 22 | 205 | 6.4 | 11.3 | 0.00 | 0.00 | 0.00 | 60 | 1008.5 |
| 20260503001803 | 21 | 217 | 4.8 | 12.9 | 0.00 | 0.00 | 0.00 | 62 | 1008.5 |
| 20260503001259 | 21 | 244 | 4.8 | 11.3 | 0.00 | 0.00 | 0.00 | 61 | 1008.2 |
| 20260503000757 | 21 | 162 | 4.8 | 12.9 | 0.00 | 0.00 | 0.00 | 61 | 1008.9 |
| 20260503000253 | 21 | 220 | 8.0 | 12.9 | 0.00 | 0.00 | 0.00 | 62 | 1008.5 |
| 20260502235750 | 21 | 229 | 3.2 | 9.7 | 0.00 | 0.00 | 0.00 | 61 | 1008.2 |
| 20260502235243 | 22 | 222 | 4.8 | 12.9 | 0.00 | 0.00 | 0.00 | 61 | 1008.5 |
| 20260502234739 | 22 | 245 | 4.8 | 8.0 | 0.00 | 0.00 | 0.00 | 61 | 1008.5 |
| 20260502234237 | 21 | 270 | 6.4 | 9.7 | 0.00 | 0.00 | 0.00 | 62 | 1008.5 |
| 20260502233732 | 22 | 210 | 4.8 | 11.3 | 0.00 | 0.00 | 0.00 | 62 | 1008.2 |
| 20260502233229 | 21 | 212 | 4.8 | 11.3 | 0.00 | 0.00 | 0.00 | 62 | 1008.5 |
| 20260502232725 | 22 | 256 | 11.3 | 12.9 | 0.00 | 0.00 | 0.00 | 60 | 1008.5 |
| 20260502232222 | 21 | 251 | 3.2 | 9.7 | 0.00 | 0.00 | 0.00 | 62 | 1008.5 |
| 20260502231719 | 22 | 245 | 9.7 | 11.3 | 0.00 | 0.00 | 0.00 | 62 | 1008.5 |
| 20260502231217 | 21 | 220 | 3.2 | 12.9 | 0.00 | 0.00 | 0.00 | 65 | 1008.9 |
| 20260502230716 | 21 | 279 | 8.0 | 12.9 | 0.00 | 0.00 | 0.00 | 64 | 1008.9 |
| 20260502230213 | 22 | 219 | 6.4 | 11.3 | 0.00 | 0.00 | 0.00 | 62 | 1008.5 |
| 20260502225709 | 21 | 253 | 1.6 | 9.7 | 0.00 | 0.00 | 0.00 | 62 | 1008.9 |
| 20260502225206 | 21 | 222 | 3.2 | 12.9 | 0.00 | 0.00 | 0.00 | 63 | 1008.9 |
| 20260502224702 | 22 | 156 | 9.7 | 14.5 | 0.00 | 0.00 | 0.00 | 63 | 1008.9 |
| 20260502224159 | 21 | 195 | 6.4 | 12.9 | 0.00 | 0.00 | 0.00 | 62 | 1009.2 |
| 20260502223656 | 21 | 214 | 9.7 | 12.9 | 0.00 | 0.00 | 0.00 | 61 | 1008.9 |
| 20260502223155 | 22 | 216 | 6.4 | 11.3 | 0.00 | 0.00 | 0.00 | 60 | 1009.2 |
| 20260502222652 | 22 | 191 | 3.2 | 9.7 | 0.00 | 0.00 | 0.00 | 61 | 1009.5 |
| 20260502222149 | 22 | 215 | 12.9 | 17.7 | 0.00 | 0.00 | 0.00 | 61 | 1009.5 |
| 20260502221644 | 21 | 230 | 6.4 | 11.3 | 0.00 | 0.00 | 0.00 | 63 | 1009.5 |
| 20260502221142 | 22 | 192 | 8.0 | 14.5 | 0.00 | 0.00 | 0.00 | 61 | 1009.5 |
| 20260502220637 | 22 | 225 | 8.0 | 14.5 | 0.00 | 0.00 | 0.00 | 62 | 1009.9 |
| 20260502220133 | 22 | 237 | 4.8 | 11.3 | 0.00 | 0.00 | 0.00 | 63 | 1009.5 |
| 20260502215631 | 22 | 310 | 9.7 | 14.5 | 0.00 | 0.00 | 0.00 | 63 | 1009.9 |
| 20260502215122 | 22 | 245 | 8.0 | 12.9 | 0.00 | 0.00 | 0.00 | 61 | 1009.9 |
| 20260502214619 | 22 | 246 | 4.8 | 9.7 | 0.00 | 0.00 | 0.00 | 61 | 1009.9 |
| 20260502214116 | 22 | 229 | 4.8 | 12.9 | 0.00 | 0.00 | 0.00 | 62 | 1009.9 |
| 20260502213614 | 22 | 227 | 6.4 | 12.9 | 0.00 | 0.00 | 0.00 | 60 | 1009.9 |
| 20260502213111 | 22 | 206 | 9.7 | 11.3 | 0.00 | 0.00 | 0.00 | 61 | 1010.2 |
| 20260502212610 | 22 | 236 | 9.7 | 14.5 | 0.00 | 0.00 | 0.00 | 63 | 1010.2 |
| 20260502212108 | 22 | 262 | 9.7 | 11.3 | 0.00 | 0.00 | 0.00 | 61 | 1010.2 |
| 20260502211603 | 21 | 247 | 12.9 | 14.5 | 0.00 | 0.00 | 0.00 | 64 | 1010.2 |
| 20260502211100 | 22 | 222 | 11.3 | 14.5 | 0.00 | 0.00 | 0.00 | 62 | 1010.2 |
| 20260502210557 | 22 | 223 | 4.8 | 12.9 | 0.00 | 0.00 | 0.00 | 63 | 1010.2 |
| 20260502210054 | 21 | 175 | 8.0 | 11.3 | 0.00 | 0.00 | 0.00 | 63 | 1010.2 |
| 20260502205550 | 21 | 263 | 8.0 | 11.3 | 0.00 | 0.00 | 0.00 | 64 | 1010.2 |
| 20260502205048 | 21 | 279 | 8.0 | 12.9 | 0.00 | 0.00 | 0.00 | 65 | 1010.6 |